Marshfield, MA

2:14 PM EST on November 20, 2019 (GMT -0500)
Marshfield

Weather History for KGHG - July, 2019

Change the Weather History Date:

Tuesday, July 23, 2019

  Actual Average (WUND) Record (WUND)
Temperature  
Mean Temperature 66 °F -  
Max Temperature 71 °F - - (-1)
Min Temperature 62 °F - - (-1)
Cooling Degree Days 2    
Growing Degree Days 16 (Base 50)    
Moisture  
Dew Point 64 °F    
Average Humidity 93    
Maximum Humidity 100    
Minimum Humidity 68    
Precipitation  
Precipitation 0.82 in - - ()
Sea Level Pressure  
Sea Level Pressure 29.83 in    
Wind  
Wind Speed 9 mph (NE)    
Max Wind Speed 16 mph    
Max Gust Speed 28 mph    
Visibility 7 miles    
Events Rain    
Averages and records for this station are not official NWS values.
T = Trace of Precipitation, MM = Missing Value Source: NWS Daily Summary

Daily Weather History Graph

Daily Weather History Graph

Search for Another Location

Airport or City:

Astronomy

Jul. 23, 2019 Rise Set
Actual Time 5:26 AM EDT 8:10 PM EDT
Civil Twilight 4:54 AM EDT 8:43 PM EDT
Nautical Twilight 4:13 AM EDT 9:24 PM EDT
Astronomical Twilight 3:26 AM EDT 10:10 PM EDT
Moon 11:50 PM EDT (7/23) 11:43 AM EDT (7/23)
Length of Visible Light 15h 49m
Length of Day
14h 44m
Waning Gibbous, 63% of the Moon is Illuminated
Jul 23
Waning Gibbous
Jul 24
Last Quarter
Jul 31
New
Aug 7
First Quarter
Aug 15
Full

Hourly Weather History & Observations

Time (EDT) Temp. Dew Point Humidity Pressure Visibility Wind Dir Wind Speed Gust Speed Precip Events Conditions
12:15 AM 69.8 °F 69.8 °F 100% 29.74 in 10.0 mi ENE 16.1 mph - N/A   Overcast
12:35 AM 69.8 °F 69.8 °F 100% 29.75 in 10.0 mi ENE 12.7 mph 20.7 mph N/A   Overcast
12:55 AM 71.6 °F 69.8 °F 94% 29.76 in 10.0 mi ENE 8.1 mph - N/A   Unknown
1:15 AM 69.8 °F 69.8 °F 100% 29.76 in 10.0 mi NE 10.4 mph - N/A   Unknown
1:35 AM 69.8 °F 69.8 °F 100% 29.75 in 10.0 mi NNE 8.1 mph - N/A   Overcast
1:55 AM 69.8 °F 69.8 °F 100% 29.76 in 6.0 mi NE 4.6 mph 11.5 mph N/A   Overcast
2:15 AM 69.8 °F 69.8 °F 100% 29.76 in 8.0 mi Variable 5.8 mph 11.5 mph N/A   Unknown
2:35 AM 68.0 °F 68.0 °F 100% 29.76 in 5.0 mi NE 9.2 mph 16.1 mph N/A   Overcast
2:55 AM 68.0 °F 68.0 °F 100% 29.77 in 6.0 mi Variable 6.9 mph 17.3 mph N/A   Overcast
3:15 AM 68.0 °F 68.0 °F 100% 29.77 in 3.0 mi North 8.1 mph 16.1 mph N/A   Overcast
3:35 AM 68.0 °F 68.0 °F 100% 29.77 in 1.0 mi Variable 5.8 mph 16.1 mph N/A Rain Light Rain
3:55 AM 66.2 °F 66.2 °F 100% 29.78 in 1.0 mi NE 9.2 mph 16.1 mph N/A   Overcast
4:15 AM 66.2 °F 66.2 °F 100% 29.78 in 1.0 mi NE 10.4 mph 17.3 mph N/A   Overcast
4:35 AM 66.2 °F 66.2 °F 100% 29.78 in 0.8 mi Variable 5.8 mph 16.1 mph N/A Rain Light Rain
4:55 AM 66.2 °F 66.2 °F 100% 29.79 in 1.2 mi NE 8.1 mph 16.1 mph 0.01 in Rain Light Rain
5:15 AM 66.2 °F 66.2 °F 100% 29.78 in 1.5 mi ENE 11.5 mph 17.3 mph N/A   Overcast
5:35 AM 66.2 °F 66.2 °F 100% 29.78 in 1.5 mi NE 12.7 mph 18.4 mph N/A   Overcast
5:55 AM 66.2 °F 66.2 °F 100% 29.79 in 1.8 mi ENE 10.4 mph 17.3 mph 0.01 in   Overcast
6:15 AM 66.2 °F 66.2 °F 100% 29.78 in 2.0 mi ENE 15.0 mph - N/A   Overcast
6:35 AM 66.2 °F 66.2 °F 100% 29.78 in 1.0 mi ENE 11.5 mph - N/A   Overcast
6:55 AM 66.2 °F 66.2 °F 100% 29.77 in 1.2 mi ENE 11.5 mph 18.4 mph 0.07 in Rain Light Rain
7:15 AM 66.2 °F 66.2 °F 100% 29.76 in 2.5 mi ENE 15.0 mph - N/A Rain Light Rain
7:35 AM 66.2 °F 66.2 °F 100% 29.77 in 7.0 mi NE 12.7 mph 18.4 mph N/A Rain Light Rain
7:55 AM 66.2 °F 66.2 °F 100% 29.79 in 9.0 mi Variable 5.8 mph 16.1 mph 0.02 in   Overcast
8:15 AM 66.2 °F 66.2 °F 100% 29.80 in 4.0 mi Variable 5.8 mph 13.8 mph N/A   Overcast
8:35 AM 66.2 °F 66.2 °F 100% 29.80 in 0.8 mi NE 10.4 mph 20.7 mph N/A Rain Rain
8:55 AM 66.2 °F 66.2 °F 100% 29.80 in 1.2 mi NE 9.2 mph 17.3 mph 0.03 in   Overcast
9:15 AM 66.2 °F 66.2 °F 100% 29.79 in 1.5 mi NNE 9.2 mph 17.3 mph N/A   Overcast
9:35 AM 66.2 °F 66.2 °F 100% 29.79 in 1.0 mi NE 9.2 mph 17.3 mph N/A Rain Light Rain
9:55 AM 66.2 °F 66.2 °F 100% 29.78 in 1.8 mi NE 10.4 mph 18.4 mph 0.05 in Rain Heavy Rain
10:15 AM 66.2 °F 66.2 °F 100% 29.80 in 1.5 mi NE 10.4 mph 19.6 mph N/A Rain Heavy Rain
10:35 AM 64.4 °F 64.4 °F 100% 29.81 in 1.2 mi NNE 9.2 mph 23.0 mph N/A Rain Heavy Rain
10:55 AM 64.4 °F 64.4 °F 100% 29.80 in - NNE 10.4 mph 23.0 mph 0.29 in Rain Heavy Rain
11:15 AM 64.4 °F 64.4 °F 100% 29.79 in 1.8 mi NNE 11.5 mph 27.6 mph N/A Rain Heavy Rain
11:35 AM 64.4 °F 64.4 °F 100% 29.78 in 1.8 mi NNE 11.5 mph 23.0 mph N/A Rain Heavy Rain
11:55 AM 62.6 °F 62.6 °F 100% 29.77 in 2.0 mi NE 11.5 mph 24.2 mph 0.22 in Rain Rain
12:15 PM 64.4 °F 64.4 °F 100% 29.76 in 1.8 mi NE 9.2 mph 20.7 mph N/A Rain Heavy Rain
12:35 PM 62.6 °F 62.6 °F 100% 29.80 in 3.0 mi Variable 6.9 mph 18.4 mph N/A Rain Light Rain
12:55 PM 62.6 °F 62.6 °F 100% 29.81 in 9.0 mi NNE 9.2 mph 23.0 mph 0.11 in   Overcast
1:15 PM 64.4 °F 62.6 °F 94% 29.81 in 10.0 mi North 10.4 mph 23.0 mph N/A   Overcast
1:35 PM 62.6 °F 62.6 °F 100% 29.82 in 3.0 mi NNE 9.2 mph 21.9 mph N/A Rain Light Rain
1:55 PM 62.6 °F 60.8 °F 94% 29.83 in 10.0 mi NNE 10.4 mph - 0.01 in   Overcast
2:15 PM 64.4 °F 59.0 °F 83% 29.83 in 10.0 mi North 11.5 mph 17.3 mph N/A   Overcast
2:35 PM 64.4 °F 59.0 °F 83% 29.84 in 10.0 mi NNE 11.5 mph 19.6 mph N/A   Overcast
2:55 PM 64.4 °F 59.0 °F 83% 29.84 in 10.0 mi North 9.2 mph 16.1 mph N/A   Unknown
3:15 PM 66.2 °F 59.0 °F 78% 29.85 in 10.0 mi North 9.2 mph 18.4 mph N/A   Unknown
3:35 PM 66.2 °F 59.0 °F 78% 29.86 in 10.0 mi North 8.1 mph 16.1 mph N/A   Overcast
3:55 PM 66.2 °F 59.0 °F 78% 29.88 in 10.0 mi Variable 5.8 mph 15.0 mph N/A   Overcast
4:15 PM 66.2 °F 59.0 °F 78% 29.87 in 10.0 mi Variable 6.9 mph - N/A   Overcast
4:35 PM 66.2 °F 57.2 °F 73% 29.88 in 10.0 mi Variable 5.8 mph - N/A   Scattered Clouds
4:55 PM 66.2 °F 57.2 °F 73% 29.88 in 10.0 mi Variable 4.6 mph - N/A   Clear
5:15 PM 66.2 °F 55.4 °F 68% 29.88 in 10.0 mi Calm Calm - N/A   Clear
5:35 PM 66.2 °F 55.4 °F 68% 29.89 in 10.0 mi Variable 3.5 mph - N/A   Clear
5:55 PM 68.0 °F 57.2 °F 68% 29.89 in 10.0 mi Calm Calm - N/A   Clear
6:15 PM 68.0 °F 57.2 °F 68% 29.89 in 10.0 mi Variable 3.5 mph - N/A   Partly Cloudy
6:35 PM 66.2 °F 59.0 °F 78% 29.90 in 10.0 mi Calm Calm - N/A   Clear
6:55 PM 68.0 °F 59.0 °F 73% 29.90 in 10.0 mi Calm Calm - N/A   Clear
7:15 PM 68.0 °F 59.0 °F 73% 29.90 in 10.0 mi Calm Calm - N/A   Clear
7:35 PM 66.2 °F 59.0 °F 78% 29.90 in 10.0 mi Calm Calm - N/A   Clear
7:55 PM 64.4 °F 62.6 °F 94% 29.91 in 10.0 mi Calm Calm - N/A   Clear
8:15 PM 64.4 °F 62.6 °F 94% 29.91 in 10.0 mi Calm Calm - N/A   Clear
8:35 PM 64.4 °F 62.6 °F 94% 29.92 in 10.0 mi Calm Calm - N/A   Partly Cloudy
8:55 PM 64.4 °F 62.6 °F 94% 29.92 in 10.0 mi Calm Calm - N/A   Clear
9:15 PM 64.4 °F 62.6 °F 94% 29.93 in 10.0 mi Calm Calm - N/A   Scattered Clouds
9:35 PM 64.4 °F 60.8 °F 88% 29.94 in 10.0 mi WSW 3.5 mph - N/A   Mostly Cloudy
9:55 PM 64.4 °F 62.6 °F 94% 29.94 in 10.0 mi Calm Calm - N/A   Overcast
10:15 PM 64.4 °F 62.6 °F 94% 29.94 in 10.0 mi Calm Calm - N/A   Overcast
10:35 PM 64.4 °F 62.6 °F 94% 29.93 in 10.0 mi Calm Calm - N/A   Mostly Cloudy
10:55 PM 64.4 °F 62.6 °F 94% 29.93 in 10.0 mi Calm Calm - N/A   Scattered Clouds
11:15 PM 62.6 °F 60.8 °F 94% 29.92 in 10.0 mi Calm Calm - N/A   Clear
11:35 PM 62.6 °F 62.6 °F 100% 29.91 in 10.0 mi Calm Calm - N/A   Clear
11:55 PM 62.6 °F 62.6 °F 100% 29.91 in 10.0 mi Calm Calm - N/A   Clear